Time,TemperatureF,DewpointF,PressureIn,WindDirection,WindDirectionDegrees,WindSpeedMPH,WindSpeedGustMPH,Humidity,HourlyPrecipIn,Conditions,Clouds,dailyrainin,SolarRadiationWatts/m^2,SoftwareType,DateUTC
2013-11-16 00:11:00,27.0,26.0,-100.00,West,269,8.0,20.0,97,0.00,,,0.00,0.000000,,2013-11-16 07:11:00,
2013-11-16 00:22:00,27.0,26.0,-100.00,West,269,8.0,20.0,97,0.00,,,0.00,0.000000,,2013-11-16 07:22:00,
2013-11-16 00:33:00,27.0,26.0,-100.00,West,269,8.0,20.0,97,0.00,,,0.00,0.000000,,2013-11-16 07:33:00,
2013-11-16 00:42:00,27.0,26.0,-100.00,West,269,8.0,20.0,97,0.00,,,0.00,0.000000,,2013-11-16 07:42:00,
2013-11-16 01:12:00,25.0,24.0,-100.00,WNW,285,9.0,19.0,96,0.00,,,0.00,0.000000,,2013-11-16 08:12:00,
2013-11-16 01:22:00,25.0,24.0,-100.00,WNW,285,9.0,19.0,96,0.00,,,0.00,0.000000,,2013-11-16 08:22:00,
2013-11-16 01:32:00,25.0,24.0,-100.00,WNW,285,9.0,19.0,96,0.00,,,0.00,0.000000,,2013-11-16 08:32:00,
2013-11-16 01:41:00,25.0,24.0,-100.00,WNW,285,9.0,19.0,96,0.00,,,0.00,0.000000,,2013-11-16 08:41:00,
2013-11-16 02:11:00,25.0,24.0,-100.00,West,280,9.0,47.0,96,0.00,,,0.00,0.000000,,2013-11-16 09:11:00,
2013-11-16 02:22:00,25.0,24.0,-100.00,West,280,9.0,47.0,96,0.00,,,0.00,0.000000,,2013-11-16 09:22:00,
2013-11-16 02:33:00,25.0,24.0,-100.00,West,280,9.0,47.0,96,0.00,,,0.00,0.000000,,2013-11-16 09:33:00,
2013-11-16 02:42:00,25.0,24.0,-100.00,West,280,9.0,47.0,96,0.00,,,0.00,0.000000,,2013-11-16 09:42:00,
2013-11-16 03:23:00,25.0,24.0,-100.00,NW,308,6.0,16.0,96,0.00,,,0.00,0.000000,,2013-11-16 10:23:00,
2013-11-16 03:33:00,25.0,24.0,-100.00,NW,308,6.0,16.0,96,0.00,,,0.00,0.000000,,2013-11-16 10:33:00,
2013-11-16 03:42:00,25.0,24.0,-100.00,NW,308,6.0,16.0,96,0.00,,,0.00,0.000000,,2013-11-16 10:42:00,
2013-11-16 04:12:00,25.0,24.0,-100.00,West,268,6.0,13.0,96,0.00,,,0.00,0.000000,,2013-11-16 11:12:00,
2013-11-16 04:22:00,25.0,24.0,-100.00,West,268,6.0,13.0,96,0.00,,,0.00,0.000000,,2013-11-16 11:22:00,
2013-11-16 04:32:00,25.0,24.0,-100.00,West,268,6.0,13.0,96,0.00,,,0.00,0.000000,,2013-11-16 11:32:00,
2013-11-16 04:42:00,25.0,24.0,-100.00,West,268,6.0,13.0,96,0.00,,,0.00,0.000000,,2013-11-16 11:42:00,
2013-11-16 05:12:00,24.0,23.0,-100.00,WSW,240,5.0,16.0,95,0.00,,,0.00,0.000000,,2013-11-16 12:12:00,
2013-11-16 05:21:00,24.0,23.0,-100.00,WSW,240,5.0,16.0,95,0.00,,,0.00,0.000000,,2013-11-16 12:21:00,
2013-11-16 05:32:00,24.0,23.0,-100.00,WSW,240,5.0,16.0,95,0.00,,,0.00,0.000000,,2013-11-16 12:32:00,
2013-11-16 05:42:00,24.0,23.0,-100.00,WSW,240,5.0,16.0,95,0.00,,,0.00,0.000000,,2013-11-16 12:42:00,
2013-11-16 06:11:00,23.0,20.0,-100.00,WSW,257,10.0,21.0,89,0.00,,,-99.99,0.000000,,2013-11-16 13:11:00,
2013-11-16 06:21:00,23.0,20.0,-100.00,WSW,257,10.0,21.0,89,0.00,,,-99.99,0.000000,,2013-11-16 13:21:00,
2013-11-16 06:32:00,23.0,20.0,-100.00,WSW,257,10.0,21.0,89,0.00,,,-99.99,0.000000,,2013-11-16 13:32:00,
2013-11-16 06:42:00,23.0,20.0,-100.00,WSW,257,10.0,21.0,89,0.00,,,-99.99,0.000000,,2013-11-16 13:42:00,
2013-11-16 07:11:00,23.0,21.0,-100.00,SW,223,4.0,17.0,90,0.00,,,0.00,0.000000,,2013-11-16 14:11:00,
2013-11-16 07:22:00,23.0,21.0,-100.00,SW,223,4.0,17.0,90,0.00,,,0.00,0.000000,,2013-11-16 14:22:00,
2013-11-16 07:32:00,23.0,21.0,-100.00,SW,223,4.0,17.0,90,0.00,,,0.00,0.000000,,2013-11-16 14:32:00,
2013-11-16 07:42:00,23.0,21.0,-100.00,SW,223,4.0,17.0,90,0.00,,,0.00,0.000000,,2013-11-16 14:42:00,
2013-11-16 08:11:00,30.0,24.0,-100.00,South,184,5.0,8.0,78,0.00,,,0.00,77.000000,,2013-11-16 15:11:00,
2013-11-16 08:21:00,30.0,24.0,-100.00,South,184,5.0,8.0,78,0.00,,,0.00,77.000000,,2013-11-16 15:21:00,
2013-11-16 08:33:00,30.0,24.0,-100.00,South,184,5.0,8.0,78,0.00,,,0.00,77.000000,,2013-11-16 15:33:00,
2013-11-16 08:43:00,30.0,24.0,-100.00,South,184,5.0,8.0,78,0.00,,,0.00,77.000000,,2013-11-16 15:43:00,
2013-11-16 09:13:00,28.0,21.0,-100.00,SSW,196,6.0,8.0,75,0.00,,,0.00,264.000000,,2013-11-16 16:13:00,
2013-11-16 09:23:00,28.0,21.0,-100.00,SSW,196,6.0,8.0,75,0.00,,,0.00,264.000000,,2013-11-16 16:23:00,
2013-11-16 09:33:00,28.0,21.0,-100.00,SSW,196,6.0,8.0,75,0.00,,,0.00,264.000000,,2013-11-16 16:33:00,
2013-11-16 09:43:00,28.0,21.0,-100.00,SSW,196,6.0,8.0,75,0.00,,,0.00,264.000000,,2013-11-16 16:43:00,
2013-11-16 10:12:00,32.0,18.0,-100.00,SSW,206,1.0,7.0,56,0.01,,,0.01,321.000000,,2013-11-16 17:12:00,
2013-11-16 10:22:00,32.0,18.0,-100.00,SSW,206,1.0,7.0,56,0.01,,,0.01,321.000000,,2013-11-16 17:22:00,
2013-11-16 10:33:00,32.0,18.0,-100.00,SSW,206,1.0,7.0,56,0.01,,,0.01,321.000000,,2013-11-16 17:33:00,
2013-11-16 10:42:00,32.0,18.0,-100.00,SSW,206,1.0,7.0,56,0.01,,,0.01,321.000000,,2013-11-16 17:42:00,
2013-11-16 11:12:00,34.0,20.0,-100.00,ENE,67,3.0,6.0,56,0.08,,,0.09,373.000000,,2013-11-16 18:12:00,
2013-11-16 11:23:00,34.0,20.0,-100.00,ENE,67,3.0,6.0,56,0.08,,,0.09,373.000000,,2013-11-16 18:23:00,
2013-11-16 11:32:00,34.0,20.0,-100.00,ENE,67,3.0,6.0,56,0.08,,,0.09,373.000000,,2013-11-16 18:32:00,
2013-11-16 11:42:00,34.0,20.0,-100.00,ENE,67,3.0,6.0,56,0.08,,,0.09,373.000000,,2013-11-16 18:42:00,
2013-11-16 12:12:00,37.0,17.0,-100.00,WSW,251,1.0,6.0,43,0.02,,,0.11,381.000000,,2013-11-16 19:12:00,
2013-11-16 12:22:00,37.0,17.0,-100.00,WSW,251,1.0,6.0,43,0.02,,,0.11,381.000000,,2013-11-16 19:22:00,
2013-11-16 12:32:00,37.0,17.0,-100.00,WSW,251,1.0,6.0,43,0.02,,,0.11,381.000000,,2013-11-16 19:32:00,
2013-11-16 12:42:00,37.0,17.0,-100.00,WSW,251,1.0,6.0,43,0.02,,,0.11,381.000000,,2013-11-16 19:42:00,
2013-11-16 13:12:00,32.0,20.0,-100.00,WSW,250,5.0,13.0,60,0.00,,,0.11,209.000000,,2013-11-16 20:12:00,
2013-11-16 13:22:00,32.0,20.0,-100.00,WSW,250,5.0,13.0,60,0.00,,,0.11,209.000000,,2013-11-16 20:22:00,
2013-11-16 13:32:00,32.0,20.0,-100.00,WSW,250,5.0,13.0,60,0.00,,,0.11,209.000000,,2013-11-16 20:32:00,
2013-11-16 13:42:00,32.0,20.0,-100.00,WSW,250,5.0,13.0,60,0.00,,,0.11,209.000000,,2013-11-16 20:42:00,
2013-11-16 14:11:00,32.0,21.0,-100.00,WSW,252,4.0,16.0,63,0.00,,,0.11,130.000000,,2013-11-16 21:11:00,
2013-11-16 14:21:00,32.0,21.0,-100.00,WSW,252,4.0,16.0,63,0.00,,,0.11,130.000000,,2013-11-16 21:21:00,
2013-11-16 14:34:00,32.0,21.0,-100.00,WSW,252,4.0,16.0,63,0.00,,,0.11,130.000000,,2013-11-16 21:34:00,
2013-11-16 14:44:00,32.0,21.0,-100.00,WSW,252,4.0,16.0,63,0.00,,,0.11,130.000000,,2013-11-16 21:44:00,
2013-11-16 15:13:00,30.0,24.0,-100.00,WSW,256,10.0,21.0,78,0.00,,,0.11,108.000000,,2013-11-16 22:13:00,
2013-11-16 15:24:00,30.0,24.0,-100.00,WSW,256,10.0,21.0,78,0.00,,,0.11,108.000000,,2013-11-16 22:24:00,
2013-11-16 15:34:00,30.0,24.0,-100.00,WSW,256,10.0,21.0,78,0.00,,,0.11,108.000000,,2013-11-16 22:34:00,
2013-11-16 15:42:00,30.0,24.0,-100.00,WSW,256,10.0,21.0,78,0.00,,,0.11,108.000000,,2013-11-16 22:42:00,
2013-11-16 16:13:00,29.0,26.0,-100.00,SW,227,15.0,27.0,89,0.00,,,0.11,103.000000,,2013-11-16 23:13:00,
2013-11-16 16:22:00,29.0,26.0,-100.00,SW,227,15.0,27.0,89,0.00,,,0.11,103.000000,,2013-11-16 23:22:00,
2013-11-16 16:34:00,29.0,26.0,-100.00,SW,227,15.0,27.0,89,0.00,,,0.11,103.000000,,2013-11-16 23:34:00,
2013-11-16 16:43:00,29.0,26.0,-100.00,SW,227,15.0,27.0,89,0.00,,,0.11,103.000000,,2013-11-16 23:43:00,
2013-11-16 17:12:00,28.0,24.0,-100.00,WSW,239,24.0,37.0,86,0.00,,,0.11,24.000000,,2013-11-17 00:12:00,
2013-11-16 17:22:00,28.0,24.0,-100.00,WSW,239,24.0,37.0,86,0.00,,,0.11,24.000000,,2013-11-17 00:22:00,
2013-11-16 17:32:00,28.0,24.0,-100.00,WSW,239,24.0,37.0,86,0.00,,,0.11,24.000000,,2013-11-17 00:32:00,
2013-11-16 17:42:00,28.0,24.0,-100.00,WSW,239,24.0,37.0,86,0.00,,,0.11,24.000000,,2013-11-17 00:42:00,
2013-11-16 18:12:00,27.0,26.0,-100.00,WSW,255,12.0,30.0,97,0.00,,,0.11,0.000000,,2013-11-17 01:12:00,
2013-11-16 18:22:00,27.0,26.0,-100.00,WSW,255,12.0,30.0,97,0.00,,,0.11,0.000000,,2013-11-17 01:22:00,
2013-11-16 18:32:00,27.0,26.0,-100.00,WSW,255,12.0,30.0,97,0.00,,,0.11,0.000000,,2013-11-17 01:32:00,
2013-11-16 18:42:00,27.0,26.0,-100.00,WSW,255,12.0,30.0,97,0.00,,,0.11,0.000000,,2013-11-17 01:42:00,
2013-11-16 19:12:00,28.0,27.0,-100.00,WSW,257,18.0,32.0,96,0.00,,,0.11,0.000000,,2013-11-17 02:12:00,
2013-11-16 19:21:00,28.0,27.0,-100.00,WSW,257,18.0,32.0,96,0.00,,,0.11,0.000000,,2013-11-17 02:21:00,
2013-11-16 19:32:00,28.0,27.0,-100.00,WSW,257,18.0,32.0,96,0.00,,,0.11,0.000000,,2013-11-17 02:32:00,
2013-11-16 19:42:00,28.0,27.0,-100.00,WSW,257,18.0,32.0,96,0.00,,,0.11,0.000000,,2013-11-17 02:42:00,
2013-11-16 20:12:00,29.0,26.0,-100.00,WSW,251,25.0,45.0,87,0.00,,,0.11,0.000000,,2013-11-17 03:12:00,
2013-11-16 20:22:00,29.0,26.0,-100.00,WSW,251,25.0,45.0,87,0.00,,,0.11,0.000000,,2013-11-17 03:22:00,
2013-11-16 20:34:00,29.0,26.0,-100.00,WSW,251,25.0,45.0,87,0.00,,,0.11,0.000000,,2013-11-17 03:34:00,
2013-11-16 20:44:00,29.0,26.0,-100.00,WSW,251,25.0,45.0,87,0.00,,,0.11,0.000000,,2013-11-17 03:44:00,
2013-11-16 21:02:00,-999.0,-99.9,-100.00,West,263,20.0,47.0,-999,-99.99,,,-99.99,0.000000,,2013-11-17 04:02:00,
2013-11-16 21:14:00,29.0,26.0,-100.00,West,263,20.0,47.0,89,0.00,,,0.11,0.000000,,2013-11-17 04:14:00,
2013-11-16 21:24:00,29.0,26.0,-100.00,West,263,20.0,47.0,89,0.00,,,0.11,0.000000,,2013-11-17 04:24:00,
2013-11-16 21:34:00,29.0,26.0,-100.00,West,263,20.0,47.0,89,0.00,,,0.11,0.000000,,2013-11-17 04:34:00,
2013-11-16 21:43:00,29.0,26.0,-100.00,West,263,20.0,47.0,89,0.00,,,0.11,0.000000,,2013-11-17 04:43:00,
2013-11-16 22:23:00,28.0,26.0,-100.00,West,280,16.0,37.0,93,0.00,,,0.11,0.000000,,2013-11-17 05:23:00,
2013-11-16 22:34:00,28.0,26.0,-100.00,West,280,16.0,37.0,93,0.00,,,0.11,0.000000,,2013-11-17 05:34:00,
2013-11-16 22:44:00,28.0,26.0,-100.00,West,280,16.0,37.0,93,0.00,,,0.11,0.000000,,2013-11-17 05:44:00,
2013-11-16 23:13:00,28.0,26.0,-100.00,West,279,18.0,37.0,93,0.00,,,0.11,0.000000,,2013-11-17 06:13:00,
2013-11-16 23:22:00,28.0,26.0,-100.00,West,279,18.0,37.0,93,0.00,,,0.11,0.000000,,2013-11-17 06:22:00,
2013-11-16 23:32:00,28.0,26.0,-100.00,West,279,18.0,37.0,93,0.00,,,0.11,0.000000,,2013-11-17 06:32:00,
2013-11-16 23:42:00,28.0,26.0,-100.00,West,279,18.0,37.0,93,0.00,,,0.11,0.000000,,2013-11-17 06:42:00,